Вернуться в каталог

STARLINK-4020

АктивенСвязьVLEO
NORAD 52703·PAYLOAD·🇺🇸 United States

Запущен May 18, 2022 с Cape Canaveral Space Force Station

Loading…

Ближайшие Пролёты (ближайшие 24 часа)

TLE

СвежийSource: CelesTrak SupGP

Эпоха: Sep 15, 2026, 02:44 UTC

1 52703C 22053AZ  26258.11437500  .00050690  00000+0  14506-2 0  2588
2 52703  53.1595 351.1715 0001164  88.6699 260.8171 15.35366898    18

Отслеживайте STARLINK-4020 в реальном времени с AllMySat

Download on the App Store